[[{"header":{"parameterUnit":"m.s-1","parameterCategory":1,"la1":30.2991,"la2":30.254,"lo1":-89.0895,"lo2":-89.0444,"dy":0.0017,"dx":0.0017,"nx":28,"ny":28,"refTime":"2024-02-09T09:00:00:Z","depth":0,"parameterNumber":2,"parameterNumberName":"U-component_of_WINDS"},"data":[0,0,0,0,0,0,0,0,0,0,0,0,0,0,0,0,0,0,0,0,0,0,0,0,0,0,0,0,0,0,0,0,0,0,0,0,0,0,0,0,0,0,0,0,0,0,0,0,0,0,0,0,0,0,0,0,0,0,-2.7988,-2.799,0,-2.8103,-2.8104,-2.8106,-2.8121,-2.812,-2.8119,-2.8118,-2.8236,-2.824,-2.8244,0,0,0,0,0,0,0,0,0,0,0,0,0,-2.7784,-2.7788,-2.7988,-2.799,-2.7991,-2.8103,-2.8104,-2.8106,-2.8121,-2.812,-2.8119,-2.8118,-2.8235,-2.824,-2.8245,0,0,0,0,0,0,0,0,0,0,0,0,0,-2.7883,-2.7789,-2.7988,-2.8012,-2.8016,-2.8102,-2.8104,-2.8106,-2.8122,-2.812,-2.8118,-2.8117,-2.8233,-2.8239,-2.8245,-2.8316,0,0,-2.8264,-2.8267,0,0,0,0,0,0,0,0,-2.7877,-2.7891,-2.8007,-2.8011,-2.8015,-2.8096,-2.8076,-2.8177,-2.8122,-2.8081,-2.8118,-2.8116,-2.8191,-2.82,-2.8226,-2.8322,-2.8327,-2.8265,-2.8269,-2.8271,-2.8273,0,0,0,0,0,0,0,-2.7871,-2.7886,-2.8034,-2.8009,-2.8014,-2.8018,-2.803,-2.8095,-2.8144,-2.8085,-2.8086,-2.81,-2.8193,-2.8219,-2.8228,-2.8328,-2.8265,-2.827,-2.8274,-2.8276,-2.8489,-2.8491,0,0,0,0,0,0,-2.7859,-2.788,-2.803,-2.8037,-2.7941,-2.8023,-2.8037,-2.8072,-2.8143,-2.8153,-2.8101,-2.81,-2.821,-2.8221,-2.8233,-2.832,-2.8271,-2.8277,-2.8281,-2.8487,-2.8489,-2.8491,0,0,0,0,0,0,-2.7855,-2.7872,-2.8025,-2.7959,-2.7979,-2.8028,-2.8067,-2.8075,-2.8102,-2.8155,-2.8164,-2.8119,-2.8209,-2.8224,-2.8295,-2.8324,-2.828,-2.8285,-2.8485,-2.8488,-2.849,-2.8495,0,0,0,0,0,0,-2.7849,-2.7871,-2.7898,-2.7959,-2.7982,-2.8086,-2.8069,-2.8078,-2.8112,-2.8112,-2.8175,-2.8184,-2.8209,-2.8286,-2.8301,-2.8332,-2.829,-2.8482,-2.8486,-2.8489,-2.8493,-2.8498,-2.8502,0,0,0,0,0,-2.7841,-2.7895,-2.7899,-2.7917,-2.8017,-2.8087,-2.81,-2.8128,-2.8115,-2.8142,-2.8177,-2.8182,-2.8319,-2.8293,-2.8311,-2.8344,-2.848,-2.8485,-2.8489,-2.849,-2.8497,-2.8502,0,0,0,0,0,0,-2.7835,-2.7903,-2.7909,-2.7983,-2.8029,-2.809,-2.8125,-2.8134,-2.8185,-2.8182,-2.8215,-2.8229,-2.8298,-2.8329,-2.8298,-2.8416,-2.8399,-2.8407,-2.8394,-2.84,-2.8405,-2.8396,-2.8296,0,0,0,0,0,-2.7842,-2.7893,-2.795,-2.8011,-2.8033,-2.8076,-2.8107,-2.8125,-2.8174,-2.8193,-2.8233,-2.8281,-2.8335,-2.8369,-2.8422,-2.8498,-2.8512,-2.8529,-2.8534,-2.8538,-2.8544,-2.8586,-2.8595,-2.8505,-2.8505,-2.8505,0,0,-2.7857,-2.7901,-2.7931,-2.801,-2.8048,-2.81,-2.8092,-2.8148,-2.8187,-2.8202,-2.8271,-2.8302,-2.8358,-2.8432,-2.8466,-2.8459,-2.8572,-2.8543,-2.8546,-2.855,-2.8592,-2.86,-2.8607,-2.8508,-2.8508,-2.8507,0,0,-2.7912,-2.795,-2.8005,-2.8043,-2.81,-2.8128,-2.8141,-2.8201,-2.8222,-2.8292,-2.8305,-2.8352,-2.8445,-2.8484,-2.8515,-2.8586,-2.8592,-2.8603,-2.8627,-2.8668,-2.8675,-2.8682,-2.8707,-2.8715,-2.8609,-2.8609,-2.8609,0,-2.7924,-2.8003,-2.8032,-2.8087,-2.8122,-2.8138,-2.8194,-2.8229,-2.8301,-2.8325,-2.8316,-2.8432,-2.847,-2.8554,-2.8571,-2.8597,-2.8612,-2.8595,-2.8672,-2.8679,-2.8685,-2.8709,-2.8718,-2.861,-2.861,-2.861,-2.8609,0,-2.8014,-2.8069,-2.8106,-2.8175,-2.8214,-2.8269,-2.8307,-2.8343,-2.8358,-2.8386,-2.8458,-2.8505,-2.8568,-2.8589,-2.8604,-2.8675,-2.8668,-2.8665,-2.8648,-2.8694,-2.8717,-2.8726,-2.8611,-2.8611,-2.861,-2.861,0,0,-2.8066,-2.8151,-2.8164,-2.8195,-2.826,-2.8304,-2.836,-2.8421,-2.8451,-2.8501,-2.8549,-2.8627,-2.8625,-2.8661,-2.8681,-2.8717,-2.8769,-2.871,-2.8711,-2.8718,-2.885,-2.8851,-2.8861,-2.8775,-2.8777,-2.8778,-2.8845,0,-2.8128,-2.8228,-2.8256,-2.8341,-2.8392,-2.8409,-2.8458,-2.8504,-2.8533,-2.8581,-2.8613,-2.8668,-2.8661,-2.8683,-2.872,-2.8755,-2.8796,-2.8751,-2.8819,-2.8822,-2.8803,-2.8873,-2.8874,-2.8935,-2.8855,-2.8856,-2.8857,0,-2.8212,-2.8263,-2.8353,-2.8412,-2.8434,-2.8478,-2.8536,-2.8582,-2.8634,-2.8653,-2.8694,-2.871,-2.877,-2.8751,-2.8834,-2.8803,-2.8833,-2.8855,-2.8858,-2.8864,-2.8841,-2.8881,-2.8955,-2.8964,-2.8872,-2.8871,-2.887,0,-2.824,-2.8331,-2.8396,-2.8423,-2.8494,-2.8524,-2.8555,-2.8606,-2.8641,-2.8692,-2.8715,-2.8773,-2.8805,-2.885,-2.8882,-2.8865,-2.8962,-2.8945,-2.8979,-2.8978,-2.8997,-2.8995,-2.9077,-2.9019,-2.9019,-2.9018,-2.9018,0,-2.8305,-2.8359,-2.841,-2.845,-2.8511,-2.8544,-2.8604,-2.8636,-2.8681,-2.8728,-2.8747,-2.8791,-2.8831,-2.888,-2.8906,-2.8971,-2.8985,-2.9002,-2.9008,-2.9,-2.8997,-2.9019,-2.9015,-2.9021,-2.902,-2.902,-2.9019,0,-2.8345,-2.8382,-2.8454,-2.8515,-2.8532,-2.8575,-2.8627,-2.8667,-2.8697,-2.8757,-2.8772,-2.882,-2.8879,-2.8916,-2.8991,-2.9008,-2.9079,-2.9085,-2.9061,-2.9064,-2.9095,-2.9091,-2.9192,-2.9207,-2.914,-2.914,-2.9141,0,-2.8383,-2.8425,-2.8491,-2.8524,-2.8555,-2.8608,-2.8643,-2.8678,-2.8715,-2.8778,-2.881,-2.8871,-2.8921,-2.9015,-2.9056,-2.9114,-2.912,-2.9151,-2.9128,-2.9119,-2.9119,-2.9116,-2.912,-2.9154,-2.9155,-2.9155,-2.9156,0,-2.8447,-2.8463,-2.8514,-2.8572,-2.8614,-2.8661,-2.8708,-2.8734,-2.8777,-2.8817,-2.8878,-2.8916,-2.8993,-2.9053,-2.9115,-2.9147,-2.9159,-2.9163,-2.9174,-2.9165,-2.9149,-2.9157,-2.907,-2.916,-2.916,-2.9159,-2.9159,-2.9159,-2.8487,-2.8525,-2.8577,-2.8634,-2.8673,-2.8716,-2.8757,-2.8793,-2.8844,-2.8908,-2.8926,-2.899,-2.9042,-2.9126,-2.916,-2.921,-2.9206,-2.9221,-2.9225,-2.9228,-2.9228,-2.9142,-2.9222,-2.9222,-2.9222,-2.9222,-2.9222,0,-2.8551,-2.8586,-2.8637,-2.8702,-2.8747,-2.8754,-2.8807,-2.8843,-2.8899,-2.8947,-2.8996,-2.9066,-2.9124,-2.917,-2.9231,-2.9262,-2.9269,-2.9276,-2.9274,-2.9281,-2.9229,-2.9213,-2.927,-2.927,-2.927,-2.927,-2.927,-2.927,-2.8589,-2.8654,-2.8677,-2.8761,-2.8796,-2.8858,-2.8887,-2.8928,-2.8966,-2.9043,-2.9092,-2.9122,-2.9169,-2.9233,-2.9287,-2.9299,-2.932,-2.9327,-2.934,-2.929,-2.9285,-2.928,-2.9265,-2.9331,-2.9331,-2.9388,-2.9388,-2.9388]},{"header":{"parameterUnit":"m.s-1","parameterCategory":1,"la1":30.2991,"la2":30.254,"lo1":-89.0895,"lo2":-89.0444,"dy":0.0017,"dx":0.0017,"nx":28,"ny":28,"refTime":"2024-02-09T09:00:00:Z","depth":0,"parameterNumber":3,"parameterNumberName":"V-component_of_WINDS"},"data":[0,0,0,0,0,0,0,0,0,0,0,0,0,0,0,0,0,0,0,0,0,0,0,0,0,0,0,0,0,0,0,0,0,0,0,0,0,0,0,0,0,0,0,0,0,0,0,0,0,0,0,0,0,0,0,0,0,0,3.3988,3.399,0,3.4128,3.4129,3.4131,3.4175,3.4174,3.4174,3.4173,3.4314,3.4319,3.4323,0,0,0,0,0,0,0,0,0,0,0,0,0,3.376,3.3764,3.3988,3.399,3.3992,3.4128,3.413,3.4131,3.4175,3.4174,3.4174,3.4173,3.4313,3.4318,3.4323,0,0,0,0,0,0,0,0,0,0,0,0,0,3.3875,3.3765,3.3988,3.403,3.4035,3.4127,3.413,3.4132,3.4175,3.4174,3.4173,3.4172,3.4311,3.4317,3.4324,3.4384,0,0,3.4344,3.4347,0,0,0,0,0,0,0,0,3.3869,3.3884,3.4022,3.4027,3.4033,3.4133,3.4101,3.4216,3.4176,3.4122,3.4173,3.4172,3.4255,3.4266,3.4294,3.4391,3.4397,3.4345,3.4349,3.4351,3.4353,0,0,0,0,0,0,0,3.3861,3.3878,3.4043,3.4024,3.4031,3.4042,3.4057,3.4123,3.4192,3.4127,3.413,3.4146,3.4257,3.4288,3.4298,3.4399,3.4344,3.435,3.4354,3.4357,3.4555,3.4556,0,0,0,0,0,0,3.3846,3.3871,3.4039,3.4048,3.3947,3.4047,3.4064,3.4102,3.4191,3.4204,3.4147,3.4148,3.4277,3.429,3.4303,3.4382,3.4351,3.4357,3.4361,3.4554,3.4555,3.4557,0,0,0,0,0,0,3.3841,3.386,3.4033,3.396,3.3983,3.4052,3.4094,3.4105,3.4135,3.4207,3.4219,3.4165,3.4277,3.4294,3.4364,3.4387,3.436,3.4366,3.4552,3.4554,3.4556,3.4538,0,0,0,0,0,0,3.3834,3.3858,3.3881,3.3961,3.3987,3.4092,3.4095,3.4109,3.4147,3.4149,3.4227,3.4239,3.4277,3.4354,3.4371,3.4396,3.4371,3.455,3.4553,3.4555,3.4537,3.4539,3.4541,0,0,0,0,0,3.3826,3.3869,3.3882,3.3902,3.4017,3.4094,3.4109,3.4152,3.4148,3.4173,3.4219,3.4237,3.4382,3.4361,3.438,3.4407,3.4549,3.4552,3.4555,3.4536,3.4539,3.4541,0,0,0,0,0,0,3.379,3.3881,3.3896,3.3966,3.4022,3.4101,3.4133,3.4153,3.4211,3.421,3.4261,3.4279,3.4346,3.4384,3.4359,3.4472,3.4466,3.4473,3.4445,3.4448,3.445,3.4441,3.4377,0,0,0,0,0,3.379,3.3845,3.3921,3.3976,3.4003,3.4063,3.4098,3.4127,3.4186,3.421,3.4261,3.4318,3.4377,3.4414,3.4472,3.4542,3.4561,3.457,3.4572,3.4574,3.458,3.4623,3.4629,3.4567,3.4567,3.4567,0,0,3.3791,3.3848,3.3879,3.397,3.4017,3.4073,3.4083,3.414,3.4183,3.4218,3.429,3.4329,3.4396,3.4468,3.4502,3.4501,3.4601,3.4578,3.4578,3.4584,3.4627,3.4632,3.4638,3.4569,3.4568,3.4568,0,0,3.3823,3.387,3.3923,3.397,3.4041,3.4081,3.4094,3.417,3.4199,3.4271,3.43,3.435,3.445,3.4498,3.4535,3.4587,3.4606,3.4604,3.4616,3.4657,3.4662,3.4667,3.4688,3.4695,3.461,3.461,3.461,0,3.3816,3.3901,3.3947,3.4005,3.4046,3.4082,3.4137,3.418,3.4265,3.4293,3.4291,3.4419,3.4466,3.4551,3.4564,3.4592,3.4609,3.4596,3.4658,3.4663,3.4668,3.4689,3.4696,3.4609,3.4609,3.4609,3.4609,0,3.389,3.3949,3.3983,3.4067,3.4111,3.4167,3.4222,3.4261,3.4287,3.4328,3.4402,3.446,3.4532,3.4554,3.4579,3.4644,3.4641,3.4648,3.4643,3.4672,3.4693,3.4701,3.4608,3.4609,3.4609,3.4609,0,0,3.3902,3.4013,3.4025,3.4065,3.4147,3.4194,3.4252,3.4323,3.4357,3.4415,3.4467,3.4551,3.4559,3.4601,3.4632,3.4668,3.4709,3.467,3.4673,3.4678,3.4788,3.4784,3.4792,3.4722,3.4724,3.4725,3.4783,0,3.3946,3.4052,3.4097,3.4183,3.424,3.4276,3.4327,3.4383,3.4423,3.4477,3.4521,3.4581,3.4585,3.4611,3.4649,3.4696,3.4733,3.4692,3.4772,3.4774,3.4756,3.4803,3.4799,3.485,3.4791,3.4793,3.4793,0,3.4011,3.4072,3.4164,3.4243,3.4268,3.4313,3.4384,3.4435,3.45,3.4527,3.4575,3.4605,3.4669,3.4659,3.4749,3.4721,3.4756,3.4785,3.4788,3.4798,3.4787,3.4817,3.4867,3.4876,3.4806,3.4805,3.4804,0,3.4014,3.4119,3.4189,3.4221,3.4314,3.4345,3.4385,3.445,3.4491,3.4552,3.458,3.4647,3.4685,3.4737,3.4784,3.4773,3.4871,3.4864,3.4896,3.4895,3.4916,3.4914,3.4975,3.4935,3.4935,3.4934,3.4934,0,3.406,3.4115,3.4192,3.4235,3.4299,3.435,3.4412,3.4454,3.4512,3.4564,3.4599,3.4648,3.4706,3.4763,3.48,3.487,3.4886,3.491,3.492,3.4909,3.4906,3.4934,3.4932,3.4937,3.4936,3.4936,3.4935,0,3.4074,3.4127,3.4206,3.4288,3.431,3.4354,3.4425,3.4468,3.451,3.4577,3.4595,3.4661,3.473,3.4782,3.487,3.4896,3.4971,3.498,3.4949,3.4955,3.4984,3.4982,3.5067,3.5082,3.5029,3.5029,3.503,0,3.41,3.4144,3.4232,3.427,3.4311,3.4371,3.4414,3.4467,3.451,3.459,3.4624,3.4696,3.4756,3.4864,3.492,3.4988,3.5001,3.5026,3.5011,3.4999,3.5004,3.5002,3.5008,3.5028,3.5028,3.5029,3.5029,0,3.4142,3.4168,3.4228,3.43,3.4351,3.4409,3.4467,3.4497,3.456,3.4607,3.4679,3.4725,3.4817,3.4888,3.4963,3.5005,3.5028,3.5033,3.5045,3.5034,3.5016,3.5029,3.4957,3.5031,3.5031,3.5031,3.5031,3.503,3.4166,3.4208,3.4277,3.4345,3.4395,3.445,3.4496,3.4545,3.4606,3.4686,3.4713,3.4787,3.4854,3.4957,3.5,3.5059,3.506,3.5075,3.508,3.5084,3.5084,3.5005,3.5073,3.5073,3.5073,3.5073,3.5073,0,3.4212,3.4259,3.4321,3.4403,3.4457,3.4475,3.4542,3.4586,3.4651,3.4712,3.4771,3.4855,3.4925,3.4987,3.506,3.5096,3.5109,3.5114,3.5113,3.5123,3.5078,3.5062,3.5102,3.5102,3.5102,3.5102,3.5102,3.5102,3.4243,3.4316,3.435,3.4449,3.4496,3.457,3.4607,3.4659,3.4708,3.48,3.4859,3.49,3.4962,3.5041,3.5106,3.5123,3.5149,3.5152,3.5171,3.5129,3.5125,3.5122,3.5107,3.5156,3.5156,3.5211,3.5212,3.5212]}]]